| time (UTC) | temp F | wind direction | speed knots | gust knots | rain 1hr in | rain 24hr in | rain mn in | humidity % | barometer mb |
| 20260507113051 | 42 | 325 | 0.0 | 3.5 | 0.00 | 0.00 | 0.00 | 61 | 1015.0 |
| 20260507111552 | 42 | 49 | 0.0 | 5.2 | 0.00 | 0.00 | 0.00 | 64 | 1014.9 |
| 20260507110050 | 43 | 59 | 2.6 | 7.0 | 0.00 | 0.00 | 0.00 | 63 | 1014.7 |
| 20260507104547 | 43 | 39 | 0.0 | 0.9 | 0.00 | 0.00 | 0.00 | 54 | 1014.6 |
| 20260507103045 | 44 | 346 | 0.0 | 0.9 | 0.00 | 0.00 | 0.00 | 57 | 1014.6 |
| 20260507101548 | 44 | 54 | 0.0 | 1.7 | 0.00 | 0.00 | 0.00 | 66 | 1014.5 |
| 20260507100044 | 43 | 69 | 0.0 | 0.0 | 0.00 | 0.00 | 0.00 | 62 | 1014.6 |
| 20260507094545 | 43 | 43 | 0.0 | 4.3 | 0.00 | 0.00 | 0.00 | 63 | 1014.4 |
| 20260507093042 | 43 | 9 | 0.0 | 5.2 | 0.00 | 0.00 | 0.00 | 67 | 1014.4 |
| 20260507091536 | 41 | 330 | 0.0 | 0.0 | 0.00 | 0.00 | 0.00 | 69 | 1014.5 |
| 20260507090036 | 42 | 18 | 0.0 | 0.9 | 0.00 | 0.00 | 0.00 | 70 | 1014.4 |
| 20260507084536 | 43 | 111 | 0.0 | 2.6 | 0.00 | 0.00 | 0.00 | 69 | 1014.4 |
| 20260507083032 | 42 | 98 | 0.9 | 3.5 | 0.00 | 0.00 | 0.00 | 73 | 1014.4 |
| 20260507081530 | 40 | 25 | 0.0 | 0.0 | 0.00 | 0.00 | 0.00 | 75 | 1014.4 |
| 20260507080029 | 41 | 329 | 0.0 | 1.7 | 0.00 | 0.00 | 0.00 | 74 | 1014.3 |
| 20260507074528 | 42 | 310 | 0.0 | 0.9 | 0.00 | 0.00 | 0.00 | 71 | 1014.2 |
| 20260507073026 | 43 | 252 | 0.0 | 1.7 | 0.00 | 0.00 | 0.00 | 73 | 1014.1 |
| 20260507071520 | 40 | 263 | 0.0 | 2.6 | 0.00 | 0.00 | 0.00 | 76 | 1014.1 |
| 20260507070020 | 39 | 107 | 0.0 | 0.9 | 0.00 | 0.00 | 0.00 | 78 | 1014.1 |
| 20260507064515 | 39 | 87 | 0.0 | 0.9 | 0.00 | 0.00 | 0.00 | 81 | 1014.2 |
| 20260507063014 | 38 | 235 | 0.0 | 0.9 | 0.00 | 0.00 | 0.00 | 83 | 1014.1 |
| 20260507061509 | 37 | 74 | 0.0 | 0.0 | 0.00 | 0.00 | 0.00 | 85 | 1014.1 |
| 20260507060006 | 36 | 36 | 0.0 | 0.0 | 0.00 | 0.00 | 0.00 | 89 | 1014.1 |
| 20260507054504 | 35 | 23 | 0.0 | 0.9 | 0.00 | 0.00 | 0.00 | 92 | 1014.0 |
| 20260507053103 | 34 | 70 | 0.0 | 2.6 | 0.00 | 0.00 | 0.00 | 93 | 1013.9 |
| 20260507051556 | 33 | 90 | 0.0 | 0.9 | 0.00 | 0.00 | 0.00 | 94 | 1013.8 |
| 20260507050053 | 32 | 51 | 0.0 | 0.0 | 0.00 | 0.00 | 0.00 | 95 | 1013.9 |
| 20260507044559 | 32 | 51 | 0.0 | 0.0 | 0.00 | 0.00 | 0.00 | 95 | 1013.8 |
| 20260507043048 | 31 | 39 | 0.0 | 0.0 | 0.00 | 0.00 | 0.00 | 96 | 1013.7 |
| 20260507041549 | 31 | 88 | 0.0 | 0.0 | 0.00 | 0.00 | 0.00 | 96 | 1013.7 |
| 20260507040044 | 30 | 88 | 0.0 | 0.0 | 0.00 | 0.00 | 0.00 | 96 | 1013.6 |
| 20260507034544 | 29 | 75 | 0.0 | 0.0 | 0.00 | 0.00 | 0.00 | 96 | 1013.5 |
| 20260507033038 | 28 | 75 | 0.0 | 0.0 | 0.00 | 0.00 | 0.00 | 96 | 1013.3 |
| 20260507031536 | 28 | 75 | 0.0 | 0.0 | 0.00 | 0.00 | 0.00 | 96 | 1013.2 |
| 20260507030035 | 28 | 75 | 0.0 | 0.0 | 0.00 | 0.00 | 0.00 | 96 | 1013.1 |
| 20260507024539 | 28 | 75 | 0.0 | 0.0 | 0.00 | 0.00 | 0.00 | 96 | 1013.0 |
| 20260507023033 | 27 | 75 | 0.0 | 0.0 | 0.00 | 0.00 | 0.00 | 96 | 1013.0 |
| 20260507021532 | 27 | 75 | 0.0 | 0.0 | 0.00 | 0.00 | 0.00 | 96 | 1013.0 |
| 20260507020041 | 26 | 75 | 0.0 | 0.0 | 0.00 | 0.00 | 0.00 | 96 | 1012.9 |
| 20260507014534 | 26 | 75 | 0.0 | 0.0 | 0.00 | 0.00 | 0.00 | 95 | 1012.8 |
| 20260507013030 | 27 | 75 | 0.0 | 0.0 | 0.00 | 0.00 | 0.00 | 95 | 1012.8 |
| 20260507011526 | 27 | 75 | 0.0 | 0.0 | 0.00 | 0.00 | 0.00 | 95 | 1012.7 |
| 20260507010028 | 28 | 75 | 0.0 | 0.0 | 0.00 | 0.00 | 0.00 | 95 | 1012.7 |
| 20260507004530 | 28 | 75 | 0.0 | 0.0 | 0.00 | 0.00 | 0.00 | 95 | 1012.6 |
| 20260507003028 | 28 | 75 | 0.0 | 0.0 | 0.00 | 0.00 | 0.00 | 95 | 1012.6 |
| 20260507001534 | 28 | 75 | 0.0 | 0.0 | 0.00 | 0.00 | 0.00 | 95 | 1012.5 |
| 20260507000022 | 27 | 75 | 0.0 | 0.0 | 0.00 | 0.00 | 0.00 | 95 | 1012.4 |
| 20260506234521 | 27 | 75 | 0.0 | 0.0 | 0.00 | 0.00 | 0.00 | 95 | 1012.3 |
| 20260506233017 | 27 | 75 | 0.0 | 0.0 | 0.00 | 0.00 | 0.00 | 95 | 1012.2 |
| 20260506231517 | 27 | 75 | 0.0 | 0.0 | 0.00 | 0.00 | 0.00 | 95 | 1012.2 |
| 20260506230016 | 27 | 75 | 0.0 | 0.0 | 0.00 | 0.00 | 0.00 | 95 | 1012.1 |
| 20260506224515 | 27 | 75 | 0.0 | 0.0 | 0.00 | 0.00 | 0.00 | 95 | 1012.0 |
| 20260506223013 | 27 | 75 | 0.0 | 0.0 | 0.00 | 0.00 | 0.00 | 95 | 1012.0 |
| 20260506221512 | 27 | 75 | 0.0 | 0.0 | 0.00 | 0.00 | 0.00 | 95 | 1011.9 |
| 20260506220011 | 27 | 75 | 0.0 | 0.0 | 0.00 | 0.00 | 0.00 | 95 | 1011.8 |
| 20260506214510 | 28 | 75 | 0.0 | 0.0 | 0.00 | 0.00 | 0.00 | 95 | 1011.8 |
| 20260506213011 | 28 | 75 | 0.0 | 0.0 | 0.00 | 0.00 | 0.00 | 95 | 1011.6 |
| 20260506211505 | 27 | 75 | 0.0 | 0.0 | 0.00 | 0.00 | 0.00 | 95 | 1011.5 |
| 20260506210004 | 27 | 75 | 0.0 | 0.0 | 0.00 | 0.00 | 0.00 | 94 | 1011.5 |
| 20260506204502 | 28 | 75 | 0.0 | 0.0 | 0.00 | 0.00 | 0.00 | 94 | 1011.5 |
| 20260506203059 | 28 | 75 | 0.0 | 0.0 | 0.00 | 0.00 | 0.00 | 92 | 1011.5 |
| 20260506201556 | 29 | 75 | 0.0 | 0.0 | 0.00 | 0.00 | 0.00 | 92 | 1011.3 |
| 20260506200051 | 30 | 75 | 0.0 | 0.0 | 0.00 | 0.00 | 0.00 | 91 | 1011.3 |
| 20260506194600 | 31 | 75 | 0.0 | 0.0 | 0.00 | 0.00 | 0.00 | 91 | 1011.1 |
| 20260506193049 | 32 | 75 | 0.0 | 0.0 | 0.00 | 0.00 | 0.00 | 91 | 1011.0 |
| 20260506191544 | 34 | 75 | 0.0 | 0.0 | 0.00 | 0.00 | 0.00 | 90 | 1010.9 |
| 20260506190044 | 34 | 55 | 0.0 | 0.9 | 0.00 | 0.00 | 0.00 | 89 | 1010.7 |
| 20260506184541 | 35 | 82 | 0.0 | 0.0 | 0.00 | 0.01 | 0.00 | 88 | 1010.5 |
| 20260506183040 | 36 | 139 | 0.0 | 0.0 | 0.00 | 0.01 | 0.00 | 87 | 1010.5 |
| 20260506181545 | 36 | 145 | 0.0 | 0.0 | 0.00 | 0.01 | 0.00 | 86 | 1010.6 |
| 20260506180042 | 36 | 95 | 0.0 | 0.0 | 0.00 | 0.01 | 0.00 | 85 | 1010.5 |
| 20260506174537 | 36 | 37 | 0.0 | 0.9 | 0.00 | 0.02 | 0.00 | 84 | 1010.4 |
| 20260506173035 | 36 | 236 | 0.0 | 0.0 | 0.00 | 0.02 | 0.00 | 84 | 1010.3 |
| 20260506171549 | 37 | 68 | 0.0 | 3.5 | 0.00 | 0.02 | 0.00 | 83 | 1010.3 |
| 20260506170038 | 37 | 179 | 0.0 | 0.0 | 0.00 | 0.02 | 0.00 | 83 | 1010.2 |
| 20260506164534 | 37 | 277 | 0.0 | 0.0 | 0.00 | 0.02 | 0.00 | 81 | 1010.1 |
| 20260506163041 | 38 | 346 | 0.0 | 3.5 | 0.00 | 0.02 | 0.00 | 78 | 1010.1 |
| 20260506161529 | 39 | 229 | 0.0 | 0.0 | 0.00 | 0.02 | 0.00 | 69 | 1009.8 |
| 20260506160030 | 40 | 44 | 0.0 | 0.0 | 0.00 | 0.02 | 0.00 | 68 | 1009.3 |
| 20260506154527 | 40 | 1 | 0.0 | 1.7 | 0.00 | 0.03 | 0.00 | 65 | 1009.3 |
| 20260506153027 | 41 | 228 | 0.0 | 4.3 | 0.00 | 0.03 | 0.00 | 62 | 1009.5 |
| 20260506151532 | 43 | 288 | 0.0 | 7.0 | 0.00 | 0.03 | 0.00 | 52 | 1009.2 |
| 20260506150022 | 44 | 246 | 0.0 | 0.9 | 0.00 | 0.03 | 0.00 | 47 | 1009.0 |
| 20260506144521 | 44 | 201 | 0.0 | 0.0 | 0.00 | 0.03 | 0.00 | 47 | 1008.9 |
| 20260506143021 | 44 | 221 | 0.0 | 0.9 | 0.00 | 0.03 | 0.00 | 47 | 1008.9 |
| 20260506141519 | 44 | 233 | 0.0 | 1.7 | 0.00 | 0.03 | 0.00 | 46 | 1008.9 |
| 20260506140023 | 45 | 259 | 0.0 | 1.7 | 0.00 | 0.03 | 0.00 | 44 | 1008.8 |
| 20260506134517 | 45 | 176 | 0.0 | 2.6 | 0.00 | 0.03 | 0.00 | 46 | 1008.7 |
| 20260506133036 | 46 | 314 | 0.0 | 2.6 | 0.00 | 0.03 | 0.00 | 43 | 1008.6 |
| 20260506131520 | 47 | 217 | 0.0 | 2.6 | 0.00 | 0.03 | 0.00 | 42 | 1008.6 |
| 20260506130012 | 46 | 16 | 0.0 | 3.5 | 0.00 | 0.03 | 0.00 | 42 | 1008.6 |
| 20260506124510 | 47 | 222 | 0.9 | 4.3 | 0.00 | 0.03 | 0.00 | 43 | 1008.5 |
| 20260506123007 | 45 | 183 | 0.0 | 2.6 | 0.00 | 0.03 | 0.00 | 44 | 1008.5 |
| 20260506121503 | 44 | 271 | 0.0 | 0.0 | 0.00 | 0.03 | 0.00 | 47 | 1008.4 |
| 20260506120100 | 42 | 212 | 0.0 | 0.9 | 0.00 | 0.03 | 0.00 | 50 | 1008.4 |
| 20260506114604 | 42 | 98 | 0.0 | 1.7 | 0.00 | 0.03 | 0.00 | 47 | 1008.3 |